KQ4LLM Weather Reports


Display with metric or nautical units.
time (UTC)temp
F
wind
direction
speed
MPH
gust
MPH
rain 1hr
in
rain 24hr
in
rain mn
in
humidity
%
barometer
mb
20260504000029 63 133 0.0 0.0 0.00 0.00 0.00 45
20260503235527 63 133 0.0 0.0 0.00 0.00 0.00 45
20260503235023 63 132 0.0 0.0 0.00 0.00 0.00 44
20260503234521 64 132 0.0 0.0 0.00 0.00 0.00 45
20260503234019 64 133 0.0 1.0 0.00 0.00 0.00 46
20260503233515 64 126 0.0 0.0 0.00 0.00 0.00 48
20260503233006 64 138 0.0 0.0 0.00 0.00 0.00 46
20260503232503 65 127 0.0 0.0 0.00 0.00 0.00 45
20260503232000 65 125 0.0 1.0 0.00 0.00 0.00 44
20260503231457 65 142 0.0 1.0 0.00 0.00 0.00 44
20260503230954 65 128 0.0 0.0 0.00 0.00 0.00 44
20260503230450 65 119 0.0 0.0 0.00 0.00 0.00 43
20260503225948 66 140 0.0 1.0 0.00 0.00 0.00 44
20260503225444 66 139 0.0 0.0 0.00 0.00 0.00 43
20260503224940 66 142 0.0 1.0 0.00 0.00 0.00 43
20260503224437 66 139 1.0 1.0 0.00 0.00 0.00 40
20260503223935 66 125 0.0 1.0 0.00 0.00 0.00 41
20260503223433 66 143 1.0 1.0 0.00 0.00 0.00 46
20260503222928 66 222 0.0 1.0 0.00 0.00 0.00 45
20260503222427 66 123 0.0 0.0 0.00 0.00 0.00 42
20260503221925 66 139 0.0 1.0 0.00 0.00 0.00 45
20260503221423 66 134 0.0 0.0 0.00 0.00 0.00 43
20260503220919 66 119 1.0 1.0 0.00 0.00 0.00 43
20260503220415 66 135 0.0 2.0 0.00 0.00 0.00 43
20260503215913 67 128 0.0 1.0 0.00 0.00 0.00 44
20260503215410 67 145 1.0 1.0 0.00 0.00 0.00 43
20260503214907 67 126 1.0 2.0 0.00 0.00 0.00 41
20260503214404 67 146 1.0 1.0 0.00 0.00 0.00 42
20260503213902 67 130 1.0 2.0 0.00 0.00 0.00 41
20260503213400 67 88 1.0 2.0 0.00 0.00 0.00 41
20260503212856 67 131 1.0 2.0 0.00 0.00 0.00 42
20260503212354 68 133 0.0 1.0 0.00 0.00 0.00 41
20260503211851 67 137 0.0 2.0 0.00 0.00 0.00 42
20260503211348 67 127 1.0 2.0 0.00 0.00 0.00 41
20260503210843 68 144 2.0 3.0 0.00 0.00 0.00 40
20260503210340 68 141 0.0 1.0 0.00 0.00 0.00 41
20260503205835 68 151 2.0 2.0 0.00 0.00 0.00 41
20260503205332 68 130 0.0 1.0 0.00 0.00 0.00 39
20260503204828 68 140 0.0 1.0 0.00 0.00 0.00 38
20260503204326 69 106 1.0 3.0 0.00 0.00 0.00 37
20260503203823 69 140 1.0 2.0 0.00 0.00 0.00 40
20260503203320 69 141 0.0 1.0 0.00 0.00 0.00 40
20260503202817 69 137 0.0 2.0 0.00 0.00 0.00 39
20260503202315 69 146 1.0 2.0 0.00 0.00 0.00 38
20260503201813 69 116 1.0 1.0 0.00 0.00 0.00 39
20260503201310 69 113 1.0 1.0 0.00 0.00 0.00 37
20260503200808 70 141 0.0 2.0 0.00 0.00 0.00 36
20260503200303 69 143 1.0 2.0 0.00 0.00 0.00 37
20260503195801 69 187 2.0 2.0 0.00 0.00 0.00 38
20260503195257 69 141 2.0 2.0 0.00 0.00 0.00 38
20260503194755 69 121 1.0 2.0 0.00 0.00 0.00 38
20260503194250 69 184 2.0 4.0 0.00 0.00 0.00 40
20260503193746 69 138 1.0 2.0 0.00 0.00 0.00 37
20260503193243 68 149 1.0 3.0 0.00 0.00 0.00 41
20260503192738 69 154 1.0 2.0 0.00 0.00 0.00 40
20260503192234 69 135 1.0 2.0 0.00 0.00 0.00 38
20260503191731 69 149 1.0 2.0 0.00 0.00 0.00 39
20260503191228 69 168 2.0 2.0 0.00 0.00 0.00 39
20260503190725 69 152 2.0 2.0 0.00 0.00 0.00 41
20260503190221 68 110 1.0 2.0 0.00 0.00 0.00 39
20260503185719 68 150 2.0 3.0 0.00 0.00 0.00 41
20260503185214 68 149 1.0 2.0 0.00 0.00 0.00 40
20260503184709 69 146 0.0 2.0 0.00 0.00 0.00 40
20260503184206 68 156 1.0 2.0 0.00 0.00 0.00 39
20260503183702 68 140 2.0 2.0 0.00 0.00 0.00 42
20260503183159 67 138 1.0 2.0 0.00 0.00 0.00 43
20260503182657 67 141 2.0 2.0 0.00 0.00 0.00 40
20260503182156 66 135 0.0 3.0 0.00 0.00 0.00 41
20260503181652 67 203 2.0 3.0 0.00 0.00 0.00 41
20260503181149 66 165 2.0 2.0 0.00 0.00 0.00 41
20260503180646 66 148 1.0 2.0 0.00 0.00 0.00 45
20260503180144 67 150 1.0 2.0 0.00 0.00 0.00 42
20260503175640 66 97 1.0 2.0 0.00 0.00 0.00 41
20260503175138 66 139 0.0 2.0 0.00 0.00 0.00 42
20260503174634 65 95 0.0 3.0 0.00 0.00 0.00 41
20260503174132 65 175 1.0 3.0 0.00 0.00 0.00 44
20260503173626 65 138 0.0 2.0 0.00 0.00 0.00 41
20260503173123 64 128 0.0 3.0 0.00 0.00 0.00 42
20260503172620 65 138 0.0 0.0 0.00 0.00 0.00 41
20260503172118 66 155 1.0 2.0 0.00 0.00 0.00 42
20260503171614 65 100 1.0 2.0 0.00 0.00 0.00 42
20260503171111 64 199 1.0 2.0 0.00 0.00 0.00 42
20260503170608 63 132 1.0 2.0 0.00 0.00 0.00 43
20260503170105 64 129 1.0 3.0 0.00 0.00 0.00 44
20260503150954 59 129 0.0 2.0 0.00 0.00 0.00 49
20260503150450 59 148 1.0 2.0 0.00 0.00 0.00 49
20260503131344 53 127 0.0 1.0 0.00 0.00 0.00 60
20260503130841 53 119 1.0 3.0 0.00 0.00 0.00 59
20260503130338 53 105 1.0 3.0 0.00 0.00 0.00 60
20260503110732 43 129 0.0 0.0 0.00 0.00 0.00 88
20260503110229 42 129 0.0 0.0 0.00 0.00 0.00 87
20260503100155 43 129 0.0 0.0 0.00 0.00 0.00 85
20260503090115 44 130 0.0 0.0 0.00 0.00 0.00 84
20260503081550 45 130 0.0 0.0 0.00 0.00 0.00 80
20260503081048 45 130 0.0 0.0 0.00 0.00 0.00 80
20260503080544 45 130 0.0 0.0 0.00 0.00 0.00 82
20260503072518 45 130 0.0 0.0 0.00 0.00 0.00 80
20260503072015 45 130 0.0 0.0 0.00 0.00 0.00 80
20260503071511 45 130 0.0 0.0 0.00 0.00 0.00 80
20260503071008 45 130 0.0 0.0 0.00 0.00 0.00 80
20260503070505 46 130 0.0 0.0 0.00 0.00 0.00 77
20260503054928 49 130 0.0 0.0 0.00 0.00 0.00 65
20260503054425 49 130 0.0 0.0 0.00 0.00 0.00 63
20260503053923 49 130 0.0 0.0 0.00 0.00 0.00 64
20260503053420 49 130 0.0 0.0 0.00 0.00 0.00 64
20260503052916 49 130 0.0 0.0 0.00 0.00 0.00 64
20260503052414 50 130 0.0 0.0 0.00 0.00 0.00 68
20260503051910 50 129 0.0 0.0 0.00 0.00 0.00 63
20260503051406 50 129 0.0 0.0 0.00 0.00 0.00 69
20260503050903 51 129 0.0 0.0 0.00 0.00 0.00 63
20260503050359 52 129 0.0 0.0 0.00 0.00 0.00 65
20260503045857 52 123 0.0 1.0 0.00 0.00 0.00 61
20260503045354 51 118 0.0 1.0 0.00 0.00 0.00 55
20260503044851 52 121 0.0 0.0 0.00 0.00 0.00 63
20260503044348 51 119 0.0 4.0 0.00 0.00 0.00 55
20260503043845 51 121 0.0 0.0 0.00 0.00 0.00 61
20260503043342 51 121 0.0 0.0 0.00 0.00 0.00 58
20260503042838 51 121 0.0 0.0 0.00 0.00 0.00 59
20260503042335 52 121 0.0 0.0 0.00 0.00 0.00 60
20260503041831 52 121 0.0 0.0 0.00 0.00 0.00 61
20260503041328 53 121 0.0 0.0 0.00 0.00 0.00 54
20260503040826 53 120 0.0 0.0 0.00 0.00 0.00 54
20260503040323 53 119 0.0 2.0 0.00 0.00 0.00 52
20260503035820 53 117 1.0 1.0 0.00 0.01 0.01 51
20260503035317 53 115 1.0 1.0 0.00 0.01 0.01 53
20260503034814 53 118 1.0 2.0 0.00 0.01 0.01 53
20260503034311 53 120 0.0 1.0 0.00 0.01 0.01 54
20260503033809 52 123 0.0 1.0 0.00 0.01 0.01 55
20260503033306 51 90 0.0 0.0 0.00 0.01 0.01 57
20260503032804 50 123 0.0 0.0 0.00 0.01 0.01 57
20260503032304 50 138 0.0 0.0 0.00 0.01 0.01 63
20260503031759 51 138 0.0 0.0 0.00 0.01 0.01 63
20260503031258 51 138 0.0 0.0 0.00 0.01 0.01 64
20260503030753 51 138 0.0 0.0 0.00 0.01 0.01 63
20260503030250 52 138 0.0 0.0 0.00 0.01 0.01 64
20260503025747 52 138 0.0 0.0 0.00 0.01 0.01 61
20260503025244 52 138 0.0 0.0 0.00 0.01 0.01 53
20260503024741 53 138 0.0 0.0 0.00 0.01 0.01 53
20260503024238 53 138 0.0 0.0 0.00 0.01 0.01 53
20260503023735 54 138 0.0 0.0 0.00 0.01 0.01 57
20260503023232 54 138 0.0 0.0 0.00 0.01 0.01 51
20260503022728 55 138 0.0 0.0 0.00 0.01 0.01 50
20260503022228 55 138 0.0 0.0 0.00 0.01 0.01 52
20260503021725 56 138 0.0 0.0 0.00 0.01 0.01 51
20260503021221 57 127 0.0 0.0 0.00 0.01 0.01 47
20260503020719 57 125 0.0 1.0 0.00 0.01 0.01 47
20260503020216 57 123 0.0 2.0 0.00 0.01 0.01 43
20260503015713 57 120 1.0 1.0 0.00 0.01 0.01 43
20260503015210 57 118 0.0 3.0 0.00 0.01 0.01 43
20260503014705 57 119 0.0 2.0 0.00 0.01 0.01 43
20260503014204 58 121 0.0 2.0 0.00 0.01 0.01 45
20260503013701 58 118 0.0 2.0 0.00 0.01 0.01 42
20260503013158 58 123 0.0 0.0 0.00 0.01 0.01 42
20260503012655 58 119 1.0 2.0 0.00 0.01 0.01 41
20260503012152 59 127 0.0 0.0 0.00 0.01 0.01 42
20260503011648 59 123 0.0 3.0 0.00 0.01 0.01 41
20260503011146 59 121 0.0 2.0 0.00 0.01 0.01 41
20260503010642 59 119 1.0 1.0 0.00 0.01 0.01 41
20260503010139 59 119 0.0 2.0 0.00 0.01 0.01 40
20260503005636 60 125 2.0 2.0 0.00 0.01 0.01 39
20260503005133 60 117 1.0 2.0 0.00 0.01 0.01 39
20260503004629 60 114 0.0 2.0 0.00 0.01 0.01 40
20260503004128 60 120 1.0 7.0 0.00 0.01 0.01 39
20260503003625 60 51 1.0 2.0 0.00 0.01 0.01 39
20260503003122 61 122 0.0 2.0 0.00 0.01 0.01 38
20260503002619 61 121 1.0 3.0 0.00 0.01 0.01 38
20260503002115 61 108 2.0 3.0 0.00 0.01 0.01 39
20260503001611 61 89 2.0 4.0 0.00 0.01 0.01 38
20260503001109 61 99 2.0 10.0 0.00 0.01 0.01 38
20260503000606 62 113 0.0 3.0 0.00 0.01 0.01 39